QPF
0.01 0.02 0.01 0.01 0.01 0.01 0.01 0.01 0.01 0.01 0.01 0.01 0.01 0.01 0.01 0.02 0.02 0.02 0.01 0.02 0.03 0.03 0.03 0.04 0.06 0.10 0.14 0.15 0.17 0.18 0.17 0.17 0.18 0.16 0.17 0.21 0.23 0.23 0.20 0.20 0.23 0.29 0.27 0.17 0.12 0.13 0.15 0.15 0.14
0.00 0.00 0.00 0.00 0.01 0.01 0.01 0.01 0.01 0.00 0.00 0.00 0.00 0.01 0.01 0.02 0.01 0.01 0.02 0.03 0.02 0.02 0.02 0.03 0.05 0.08 0.11 0.11 0.12 0.14 0.17 0.18 0.16 0.17 0.18 0.17 0.20 0.22 0.21 0.21 0.23 0.23 0.19 0.13 0.11 0.12 0.16 0.17 0.16
0.00 0.00 0.00 0.00 0.01 0.01 0.01 0.01 0.01 0.01 0.01 0.01 0.00 0.01 0.03 0.03 0.02 0.02 0.02 0.02 0.02 0.02 0.02 0.04 0.05 0.08 0.09 0.08 0.08 0.11 0.17 0.18 0.16 0.11 0.13 0.14 0.16 0.16 0.16 0.17 0.19 0.18 0.16 0.13 0.11 0.12 0.17 0.22 0.16
0.00 0.00 0.00 0.01 0.00 0.00 0.00 0.01 0.01 0.01 0.02 0.01 0.01 0.03 0.04 0.02 0.02 0.02 0.02 0.01 0.02 0.02 0.04 0.06 0.05 0.07 0.09 0.08 0.06 0.07 0.11 0.14 0.16 0.13 0.13 0.15 0.15 0.12 0.12 0.12 0.13 0.11 0.10 0.11 0.12 0.17 0.24 0.21 0.14
0.00 0.00 0.01 0.00 0.00 0.00 0.00 0.00 0.01 0.01 0.02 0.01 0.02 0.03 0.04 0.04 0.02 0.01 0.01 0.02 0.02 0.03 0.06 0.09 0.06 0.07 0.10 0.10 0.08 0.08 0.09 0.09 0.12 0.12 0.10 0.12 0.12 0.11 0.11 0.11 0.13 0.11 0.10 0.08 0.11 0.19 0.21 0.16 0.14
0.00 0.00 0.00 0.00 0.00 0.00 0.00 0.00 0.01 0.01 0.01 0.01 0.01 0.01 0.04 0.04 0.02 0.02 0.01 0.02 0.02 0.03 0.05 0.07 0.06 0.06 0.08 0.10 0.08 0.07 0.08 0.07 0.09 0.11 0.11 0.11 0.12 0.11 0.09 0.09 0.10 0.11 0.11 0.09 0.10 0.14 0.16 0.16 0.18
0.00 0.00 0.00 0.00 0.00 0.00 0.00 0.00 0.00 0.00 0.01 0.01 0.01 0.01 0.03 0.04 0.03 0.02 0.02 0.02 0.03 0.03 0.04 0.06 0.07 0.06 0.06 0.07 0.08 0.09 0.09 0.08 0.10 0.11 0.12 0.13 0.15 0.15 0.10 0.08 0.09 0.09 0.09 0.09 0.10 0.12 0.16 0.18 0.20
0.00 0.00 0.00 0.00 0.00 0.00 0.00 0.00 0.00 0.01 0.01 0.00 0.01 0.01 0.02 0.02 0.02 0.02 0.03 0.03 0.03 0.03 0.04 0.06 0.07 0.05 0.04 0.05 0.08 0.09 0.09 0.10 0.11 0.12 0.12 0.17 0.18 0.13 0.13 0.12 0.09 0.08 0.08 0.08 0.08 0.08 0.11 0.14 0.16
0.00 0.00 0.00 0.00 0.00 0.00 0.00 0.00 0.00 0.00 0.00 0.00 0.00 0.00 0.00 0.00 0.01 0.01 0.03 0.04 0.04 0.03 0.02 0.03 0.03 0.03 0.03 0.04 0.06 0.10 0.10 0.10 0.14 0.21 0.26 0.24 0.14 0.10 0.11 0.10 0.09 0.09 0.08 0.09 0.10 0.07 0.08 0.10 0.14
0.00 0.00 0.00 0.00 0.00 0.00 0.00 0.00 0.00 0.00 0.01 0.01 0.01 0.00 0.00 0.00 0.01 0.02 0.04 0.04 0.03 0.03 0.03 0.03 0.03 0.03 0.03 0.03 0.07 0.11 0.11 0.15 0.17 0.26 0.31 0.17 0.09 0.08 0.06 0.07 0.07 0.09 0.08 0.09 0.10 0.09 0.08 0.08 0.10
0.00 0.00 0.00 0.00 0.00 0.00 0.00 0.00 0.00 0.00 0.01 0.00 0.00 0.00 0.01 0.01 0.02 0.03 0.03 0.03 0.03 0.03 0.03 0.02 0.02 0.03 0.03 0.02 0.03 0.05 0.09 0.12 0.14 0.15 0.13 0.08 0.04 0.04 0.04 0.06 0.06 0.05 0.05 0.05 0.06 0.06 0.05 0.06 0.09
0.00 0.00 0.00 0.00 0.00 0.00 0.00 0.00 0.00 0.00 0.00 0.00 0.00 0.00 0.01 0.02 0.03 0.03 0.03 0.02 0.01 0.02 0.02 0.01 0.01 0.02 0.02 0.02 0.02 0.03 0.04 0.05 0.04 0.04 0.04 0.03 0.04 0.05 0.05 0.05 0.04 0.03 0.04 0.04 0.04 0.05 0.04 0.06 0.09
0.00 0.00 0.00 0.00 0.00 0.00 0.00 0.00 0.00 0.00 0.01 0.01 0.00 0.00 0.01 0.02 0.03 0.04 0.03 0.02 0.01 0.01 0.01 0.01 0.01 0.02 0.02 0.03 0.04 0.02 0.02 0.03 0.02 0.03 0.03 0.03 0.04 0.05 0.05 0.05 0.06 0.05 0.05 0.06 0.05 0.07 0.06 0.08 0.09
0.00 0.00 0.00 0.00 0.00 0.00 0.00 0.00 0.00 0.00 0.01 0.01 0.00 0.00 0.01 0.02 0.03 0.04 0.02 0.01 0.02 0.01 0.01 0.01 0.01 0.01 0.02 0.03 0.04 0.04 0.03 0.04 0.04 0.03 0.03 0.04 0.04 0.05 0.05 0.05 0.05 0.06 0.06 0.05 0.05 0.08 0.07 0.07 0.07
0.00 0.00 0.00 0.00 0.00 0.00 0.00 0.00 0.00 0.00 0.01 0.01 0.00 0.01 0.01 0.02 0.03 0.03 0.02 0.01 0.01 0.01 0.01 0.00 0.00 0.01 0.02 0.03 0.03 0.04 0.04 0.03 0.05 0.05 0.04 0.07 0.05 0.06 0.04 0.04 0.04 0.05 0.05 0.05 0.05 0.06 0.06 0.05 0.07
0.00 0.00 0.00 0.00 0.00 0.00 0.00 0.00 0.00 0.00 0.01 0.02 0.01 0.01 0.01 0.01 0.01 0.01 0.01 0.01 0.01 0.01 0.01 0.00 0.00 0.01 0.02 0.04 0.04 0.04 0.04 0.05 0.06 0.06 0.07 0.08 0.05 0.05 0.04 0.03 0.03 0.05 0.05 0.05 0.06 0.06 0.04 0.04 0.05
0.00 0.00 0.00 0.00 0.00 0.00 0.00 0.00 0.00 0.00 0.00 0.01 0.01 0.00 0.01 0.01 0.01 0.00 0.00 0.00 0.00 0.00 0.01 0.01 0.01 0.02 0.02 0.03 0.04 0.05 0.06 0.07 0.07 0.07 0.07 0.08 0.06 0.04 0.06 0.04 0.03 0.04 0.04 0.04 0.04 0.04 0.04 0.05 0.05
0.00 0.00 0.00 0.00 0.00 0.00 0.00 0.00 0.00 0.00 0.00 0.00 0.00 0.00 0.00 0.00 0.00 0.00 0.00 0.00 0.00 0.00 0.00 0.01 0.02 0.03 0.03 0.04 0.05 0.07 0.07 0.07 0.06 0.07 0.06 0.08 0.07 0.05 0.05 0.04 0.04 0.03 0.04 0.04 0.04 0.05 0.05 0.06 0.07
0.00 0.00 0.00 0.00 0.00 0.00 0.00 0.00 0.00 0.00 0.00 0.00 0.00 0.00 0.00 0.00 0.00 0.00 0.00 0.00 0.00 0.00 0.01 0.01 0.02 0.03 0.05 0.05 0.06 0.08 0.09 0.08 0.07 0.08 0.07 0.07 0.06 0.06 0.07 0.06 0.06 0.05 0.05 0.06 0.06 0.06 0.06 0.07 0.08
0.00 0.00 0.00 0.00 0.00 0.00 0.00 0.00 0.00 0.00 0.00 0.00 0.00 0.00 0.00 0.00 0.00 0.00 0.00 0.00 0.00 0.01 0.01 0.01 0.01 0.02 0.03 0.04 0.05 0.06 0.08 0.11 0.09 0.07 0.07 0.05 0.05 0.06 0.06 0.07 0.07 0.07 0.07 0.08 0.09 0.10 0.07 0.06 0.07
0.00 0.00 0.00 0.00 0.00 0.00 0.00 0.00 0.00 0.00 0.00 0.00 0.00 0.00 0.00 0.00 0.00 0.00 0.00 0.00 0.00 0.00 0.01 0.01 0.01 0.02 0.02 0.02 0.02 0.03 0.04 0.06 0.08 0.06 0.06 0.04 0.05 0.07 0.08 0.07 0.06 0.06 0.07 0.09 0.09 0.09 0.08 0.07 0.07
0.00 0.00 0.00 0.00 0.00 0.00 0.00 0.00 0.00 0.00 0.00 0.00 0.00 0.00 0.00 0.00 0.00 0.00 0.00 0.00 0.01 0.01 0.01 0.01 0.01 0.01 0.02 0.02 0.03 0.03 0.03 0.04 0.04 0.05 0.06 0.06 0.06 0.08 0.08 0.07 0.07 0.08 0.08 0.09 0.07 0.06 0.08 0.10 0.09
0.00 0.00 0.00 0.00 0.00 0.00 0.00 0.00 0.00 0.00 0.00 0.00 0.00 0.00 0.00 0.00 0.00 0.00 0.01 0.01 0.03 0.01 0.01 0.01 0.01 0.01 0.01 0.02 0.02 0.03 0.02 0.03 0.03 0.04 0.04 0.05 0.04 0.04 0.04 0.05 0.07 0.07 0.07 0.07 0.06 0.05 0.06 0.07 0.10
0.00 0.00 0.00 0.00 0.00 0.00 0.00 0.00 0.00 0.00 0.00 0.00 0.00 0.00 0.00 0.00 0.00 0.00 0.00 0.00 0.01 0.00 0.00 0.01 0.01 0.01 0.01 0.02 0.02 0.02 0.02 0.02 0.03 0.03 0.03 0.03 0.03 0.02 0.02 0.03 0.05 0.04 0.05 0.06 0.07 0.06 0.04 0.04 0.07
0.00 0.00 0.00 0.00 0.00 0.00 0.00 0.00 0.00 0.00 0.00 0.00 0.00 0.00 0.00 0.00 0.00 0.00 0.00 0.00 0.00 0.00 0.00 0.00 0.00 0.01 0.02 0.02 0.02 0.02 0.02 0.02 0.02 0.02 0.02 0.02 0.02 0.02 0.02 0.03 0.04 0.04 0.04 0.04 0.06 0.05 0.04 0.04 0.05
0.00 0.00 0.00 0.00 0.00 0.00 0.00 0.00 0.00 0.00 0.00 0.00 0.00 0.00 0.00 0.00 0.00 0.00 0.00 0.00 0.00 0.00 0.00 0.00 0.00 0.01 0.01 0.01 0.01 0.02 0.01 0.02 0.02 0.02 0.01 0.01 0.01 0.02 0.02 0.02 0.03 0.03 0.04 0.04 0.05 0.05 0.06 0.05 0.04
0.00 0.00 0.00 0.00 0.00 0.00 0.00 0.00 0.00 0.00 0.00 0.00 0.00 0.00 0.00 0.00 0.00 0.01 0.01 0.00 0.00 0.00 0.00 0.00 0.01 0.01 0.01 0.01 0.01 0.01 0.01 0.01 0.02 0.02 0.02 0.01 0.02 0.01 0.01 0.01 0.02 0.03 0.04 0.05 0.06 0.06 0.06 0.06 0.05
0.00 0.00 0.00 0.00 0.00 0.00 0.00 0.00 0.00 0.00 0.00 0.00 0.00 0.00 0.00 0.00 0.00 0.01 0.00 0.00 0.00 0.00 0.00 0.00 0.00 0.01 0.01 0.01 0.01 0.01 0.01 0.01 0.02 0.02 0.02 0.01 0.02 0.02 0.02 0.02 0.03 0.04 0.04 0.04 0.04 0.04 0.04 0.04 0.04
0.00 0.00 0.00 0.00 0.00 0.00 0.00 0.00 0.00 0.00 0.00 0.00 0.00 0.00 0.00 0.00 0.00 0.00 0.00 0.00 0.00 0.00 0.00 0.00 0.01 0.01 0.01 0.01 0.01 0.01 0.01 0.01 0.01 0.01 0.01 0.01 0.02 0.03 0.04 0.04 0.05 0.05 0.04 0.03 0.04 0.03 0.03 0.03 0.04
0.00 0.00 0.00 0.00 0.00 0.00 0.00 0.00 0.00 0.00 0.00 0.00 0.00 0.00 0.00 0.00 0.00 0.00 0.00 0.00 0.00 0.00 0.00 0.00 0.01 0.01 0.01 0.01 0.01 0.01 0.01 0.00 0.00 0.00 0.00 0.01 0.02 0.03 0.03 0.04 0.04 0.04 0.03 0.03 0.02 0.02 0.01 0.02 0.02
MSLP
1006.29 1006.84 1007.52 1008.29 1009.06 1009.76 1010.32 1010.69 1010.88 1010.90 1010.84 1010.74 1010.67 1010.66 1010.70 1010.77 1010.82 1010.81 1010.72 1010.56 1010.37 1010.19 1010.09 1010.11 1010.26 1010.51 1010.83 1011.16 1011.45 1011.67 1011.84 1011.99 1012.15 1012.37 1012.68 1013.08 1013.54 1014.00 1014.42 1014.77 1015.02 1015.19 1015.31 1015.45 1015.61 1015.84 1016.12 1016.42 1016.70
1006.32 1006.96 1007.71 1008.52 1009.28 1009.93 1010.40 1010.65 1010.71 1010.61 1010.45 1010.30 1010.21 1010.21 1010.30 1010.44 1010.57 1010.64 1010.63 1010.55 1010.43 1010.32 1010.29 1010.36 1010.56 1010.86 1011.21 1011.56 1011.86 1012.10 1012.29 1012.44 1012.61 1012.85 1013.18 1013.58 1014.03 1014.48 1014.88 1015.19 1015.41 1015.55 1015.66 1015.78 1015.94 1016.15 1016.42 1016.70 1016.96
1006.44 1007.12 1007.91 1008.71 1009.44 1010.03 1010.42 1010.59 1010.56 1010.40 1010.20 1010.03 1009.96 1009.99 1010.13 1010.32 1010.50 1010.62 1010.66 1010.61 1010.53 1010.46 1010.47 1010.58 1010.82 1011.15 1011.54 1011.92 1012.25 1012.52 1012.73 1012.91 1013.11 1013.36 1013.69 1014.08 1014.52 1014.94 1015.31 1015.59 1015.78 1015.90 1016.00 1016.11 1016.26 1016.47 1016.72 1016.98 1017.22
1006.58 1007.28 1008.04 1008.81 1009.49 1010.02 1010.35 1010.48 1010.43 1010.27 1010.09 1009.96 1009.94 1010.03 1010.21 1010.44 1010.65 1010.78 1010.82 1010.78 1010.70 1010.64 1010.66 1010.78 1011.04 1011.39 1011.80 1012.21 1012.58 1012.88 1013.12 1013.34 1013.57 1013.84 1014.18 1014.57 1014.98 1015.38 1015.72 1015.98 1016.15 1016.27 1016.36 1016.47 1016.63 1016.83 1017.07 1017.30 1017.49
1006.71 1007.36 1008.07 1008.77 1009.39 1009.87 1010.18 1010.31 1010.29 1010.20 1010.10 1010.06 1010.12 1010.28 1010.51 1010.77 1010.98 1011.10 1011.12 1011.06 1010.95 1010.87 1010.87 1010.99 1011.24 1011.59 1012.01 1012.43 1012.81 1013.14 1013.42 1013.67 1013.93 1014.24 1014.59 1014.99 1015.40 1015.79 1016.12 1016.37 1016.55 1016.67 1016.78 1016.90 1017.06 1017.26 1017.47 1017.65 1017.79
1006.76 1007.34 1007.96 1008.58 1009.13 1009.57 1009.88 1010.05 1010.11 1010.13 1010.15 1010.24 1010.41 1010.65 1010.94 1011.22 1011.42 1011.52 1011.51 1011.40 1011.26 1011.15 1011.12 1011.21 1011.44 1011.77 1012.17 1012.58 1012.96 1013.30 1013.60 1013.88 1014.17 1014.50 1014.88 1015.30 1015.73 1016.13 1016.47 1016.74 1016.94 1017.10 1017.23 1017.38 1017.55 1017.73 1017.91 1018.05 1018.12
1006.75 1007.23 1007.74 1008.26 1008.74 1009.14 1009.46 1009.70 1009.87 1010.02 1010.19 1010.42 1010.71 1011.04 1011.38 1011.67 1011.87 1011.95 1011.90 1011.77 1011.60 1011.46 1011.41 1011.48 1011.67 1011.97 1012.33 1012.70 1013.05 1013.37 1013.66 1013.95 1014.26 1014.62 1015.03 1015.47 1015.93 1016.36 1016.74 1017.05 1017.29 1017.49 1017.67 1017.85 1018.03 1018.21 1018.36 1018.45 1018.46
1006.67 1007.06 1007.46 1007.88 1008.29 1008.67 1009.00 1009.30 1009.58 1009.86 1010.18 1010.53 1010.93 1011.34 1011.72 1012.03 1012.23 1012.30 1012.24 1012.10 1011.93 1011.80 1011.74 1011.79 1011.96 1012.21 1012.51 1012.83 1013.12 1013.39 1013.65 1013.92 1014.23 1014.60 1015.03 1015.51 1016.00 1016.47 1016.89 1017.25 1017.55 1017.80 1018.03 1018.25 1018.46 1018.64 1018.77 1018.82 1018.78
1006.59 1006.89 1007.20 1007.53 1007.88 1008.23 1008.58 1008.93 1009.29 1009.68 1010.10 1010.55 1011.03 1011.49 1011.90 1012.23 1012.43 1012.50 1012.47 1012.35 1012.22 1012.12 1012.09 1012.15 1012.30 1012.51 1012.76 1013.00 1013.22 1013.42 1013.62 1013.85 1014.13 1014.49 1014.93 1015.42 1015.94 1016.45 1016.92 1017.33 1017.68 1017.99 1018.26 1018.52 1018.76 1018.96 1019.09 1019.12 1019.05
1006.53 1006.78 1007.03 1007.29 1007.59 1007.91 1008.27 1008.65 1009.06 1009.52 1010.00 1010.51 1011.02 1011.50 1011.92 1012.25 1012.46 1012.56 1012.56 1012.50 1012.43 1012.39 1012.42 1012.51 1012.67 1012.86 1013.05 1013.22 1013.36 1013.48 1013.61 1013.78 1014.02 1014.35 1014.78 1015.27 1015.80 1016.32 1016.82 1017.26 1017.66 1018.01 1018.34 1018.64 1018.91 1019.14 1019.29 1019.33 1019.26
1006.52 1006.76 1006.98 1007.21 1007.48 1007.78 1008.13 1008.52 1008.95 1009.42 1009.92 1010.44 1010.94 1011.41 1011.82 1012.14 1012.36 1012.48 1012.53 1012.54 1012.56 1012.60 1012.70 1012.85 1013.03 1013.21 1013.36 1013.48 1013.55 1013.59 1013.64 1013.75 1013.93 1014.23 1014.62 1015.09 1015.61 1016.13 1016.63 1017.09 1017.51 1017.89 1018.25 1018.59 1018.90 1019.16 1019.35 1019.43 1019.39
1006.57 1006.83 1007.06 1007.29 1007.55 1007.84 1008.17 1008.55 1008.97 1009.43 1009.90 1010.39 1010.86 1011.29 1011.66 1011.96 1012.17 1012.32 1012.42 1012.51 1012.60 1012.73 1012.91 1013.11 1013.32 1013.51 1013.65 1013.72 1013.74 1013.73 1013.72 1013.77 1013.90 1014.15 1014.50 1014.93 1015.42 1015.92 1016.40 1016.85 1017.26 1017.65 1018.02 1018.39 1018.74 1019.05 1019.30 1019.43 1019.45
1006.66 1006.96 1007.23 1007.49 1007.75 1008.05 1008.37 1008.73 1009.12 1009.54 1009.96 1010.39 1010.81 1011.18 1011.51 1011.78 1011.99 1012.15 1012.29 1012.43 1012.58 1012.78 1013.02 1013.27 1013.51 1013.71 1013.85 1013.91 1013.90 1013.86 1013.82 1013.82 1013.92 1014.12 1014.42 1014.81 1015.25 1015.71 1016.15 1016.57 1016.96 1017.34 1017.71 1018.10 1018.48 1018.84 1019.14 1019.35 1019.43
1006.75 1007.12 1007.43 1007.73 1008.02 1008.33 1008.65 1008.98 1009.34 1009.71 1010.08 1010.46 1010.81 1011.14 1011.43 1011.67 1011.87 1012.03 1012.19 1012.35 1012.54 1012.77 1013.03 1013.30 1013.56 1013.77 1013.92 1013.98 1013.98 1013.93 1013.88 1013.88 1013.95 1014.12 1014.39 1014.73 1015.12 1015.52 1015.91 1016.28 1016.64 1017.00 1017.36 1017.75 1018.16 1018.56 1018.92 1019.20 1019.35
1006.83 1007.24 1007.61 1007.95 1008.27 1008.59 1008.91 1009.23 1009.55 1009.88 1010.21 1010.54 1010.85 1011.15 1011.41 1011.64 1011.83 1012.00 1012.15 1012.31 1012.50 1012.72 1012.97 1013.23 1013.48 1013.70 1013.85 1013.93 1013.94 1013.92 1013.90 1013.90 1013.97 1014.13 1014.36 1014.66 1015.00 1015.36 1015.70 1016.03 1016.34 1016.67 1017.02 1017.41 1017.83 1018.26 1018.66 1018.99 1019.21
1006.89 1007.32 1007.72 1008.09 1008.44 1008.78 1009.10 1009.40 1009.70 1009.99 1010.28 1010.58 1010.87 1011.16 1011.43 1011.67 1011.87 1012.04 1012.19 1012.34 1012.49 1012.67 1012.88 1013.10 1013.32 1013.52 1013.67 1013.77 1013.82 1013.84 1013.85 1013.88 1013.97 1014.12 1014.33 1014.60 1014.90 1015.21 1015.51 1015.80 1016.08 1016.38 1016.71 1017.09 1017.51 1017.95 1018.38 1018.75 1019.02
1006.93 1007.36 1007.77 1008.16 1008.53 1008.87 1009.18 1009.46 1009.72 1009.98 1010.24 1010.52 1010.81 1011.12 1011.42 1011.69 1011.93 1012.13 1012.28 1012.41 1012.54 1012.66 1012.81 1012.97 1013.14 1013.31 1013.46 1013.58 1013.66 1013.72 1013.77 1013.83 1013.94 1014.09 1014.29 1014.53 1014.80 1015.07 1015.34 1015.60 1015.86 1016.14 1016.46 1016.82 1017.23 1017.67 1018.11 1018.49 1018.79
1006.96 1007.38 1007.79 1008.19 1008.56 1008.89 1009.17 1009.41 1009.62 1009.83 1010.05 1010.31 1010.61 1010.94 1011.29 1011.63 1011.93 1012.18 1012.37 1012.51 1012.61 1012.69 1012.78 1012.88 1013.01 1013.14 1013.28 1013.41 1013.52 1013.62 1013.71 1013.80 1013.92 1014.07 1014.25 1014.47 1014.70 1014.95 1015.20 1015.44 1015.69 1015.97 1016.27 1016.62 1017.01 1017.43 1017.85 1018.23 1018.53
1007.02 1007.41 1007.81 1008.21 1008.57 1008.88 1009.11 1009.29 1009.42 1009.55 1009.71 1009.92 1010.21 1010.57 1010.98 1011.40 1011.79 1012.12 1012.38 1012.56 1012.67 1012.74 1012.80 1012.86 1012.95 1013.07 1013.20 1013.34 1013.48 1013.60 1013.72 1013.83 1013.95 1014.08 1014.24 1014.43 1014.63 1014.85 1015.08 1015.33 1015.58 1015.85 1016.15 1016.48 1016.85 1017.24 1017.63 1017.99 1018.27
1007.09 1007.48 1007.88 1008.27 1008.62 1008.88 1009.05 1009.13 1009.16 1009.17 1009.23 1009.37 1009.62 1009.99 1010.44 1010.94 1011.43 1011.88 1012.23 1012.49 1012.66 1012.76 1012.83 1012.89 1012.97 1013.09 1013.23 1013.39 1013.55 1013.70 1013.83 1013.95 1014.05 1014.16 1014.28 1014.43 1014.60 1014.80 1015.02 1015.25 1015.51 1015.79 1016.09 1016.41 1016.75 1017.10 1017.45 1017.77 1018.03
1007.17 1007.56 1007.99 1008.39 1008.72 1008.94 1009.02 1008.99 1008.87 1008.74 1008.65 1008.68 1008.86 1009.20 1009.67 1010.24 1010.83 1011.39 1011.87 1012.24 1012.51 1012.69 1012.81 1012.91 1013.02 1013.17 1013.33 1013.52 1013.71 1013.88 1014.03 1014.14 1014.23 1014.30 1014.38 1014.48 1014.61 1014.78 1014.98 1015.22 1015.48 1015.77 1016.06 1016.37 1016.68 1017.00 1017.30 1017.57 1017.80
1007.20 1007.63 1008.09 1008.52 1008.85 1009.02 1009.03 1008.87 1008.60 1008.29 1008.04 1007.92 1007.99 1008.26 1008.72 1009.32 1009.99 1010.66 1011.26 1011.77 1012.15 1012.44 1012.66 1012.84 1013.02 1013.21 1013.43 1013.67 1013.90 1014.10 1014.26 1014.37 1014.43 1014.47 1014.50 1014.55 1014.64 1014.78 1014.97 1015.20 1015.47 1015.75 1016.05 1016.34 1016.62 1016.89 1017.15 1017.37 1017.57
1007.14 1007.63 1008.14 1008.60 1008.94 1009.09 1009.02 1008.76 1008.34 1007.87 1007.45 1007.17 1007.10 1007.27 1007.68 1008.27 1008.99 1009.74 1010.45 1011.07 1011.58 1011.99 1012.32 1012.60 1012.86 1013.14 1013.43 1013.72 1014.00 1014.24 1014.42 1014.54 1014.59 1014.60 1014.59 1014.60 1014.65 1014.76 1014.93 1015.15 1015.41 1015.70 1015.99 1016.26 1016.52 1016.75 1016.95 1017.14 1017.31
1006.94 1007.48 1008.05 1008.56 1008.92 1009.07 1008.97 1008.63 1008.12 1007.51 1006.94 1006.51 1006.30 1006.36 1006.68 1007.24 1007.95 1008.73 1009.51 1010.21 1010.83 1011.34 1011.77 1012.15 1012.51 1012.87 1013.24 1013.60 1013.94 1014.23 1014.44 1014.57 1014.63 1014.62 1014.59 1014.57 1014.59 1014.67 1014.81 1015.03 1015.28 1015.56 1015.84 1016.09 1016.32 1016.51 1016.68 1016.83 1016.97
1006.59 1007.17 1007.78 1008.33 1008.74 1008.92 1008.82 1008.47 1007.91 1007.24 1006.58 1006.03 1005.71 1005.65 1005.88 1006.36 1007.02 1007.78 1008.56 1009.31 1009.97 1010.55 1011.06 1011.52 1011.96 1012.40 1012.84 1013.27 1013.67 1014.01 1014.26 1014.42 1014.49 1014.49 1014.45 1014.41 1014.41 1014.47 1014.59 1014.79 1015.03 1015.30 1015.56 1015.79 1015.99 1016.15 1016.28 1016.40 1016.52
1006.11 1006.68 1007.31 1007.91 1008.36 1008.60 1008.57 1008.27 1007.74 1007.08 1006.40 1005.82 1005.42 1005.28 1005.40 1005.78 1006.34 1007.04 1007.77 1008.49 1009.15 1009.75 1010.28 1010.78 1011.27 1011.76 1012.26 1012.75 1013.20 1013.59 1013.89 1014.08 1014.17 1014.19 1014.15 1014.11 1014.10 1014.14 1014.25 1014.43 1014.65 1014.90 1015.14 1015.35 1015.52 1015.65 1015.75 1015.84 1015.94
1005.55 1006.08 1006.70 1007.31 1007.82 1008.14 1008.22 1008.04 1007.64 1007.08 1006.47 1005.92 1005.51 1005.31 1005.35 1005.61 1006.06 1006.63 1007.26 1007.89 1008.49 1009.05 1009.57 1010.07 1010.58 1011.09 1011.62 1012.14 1012.62 1013.05 1013.39 1013.62 1013.74 1013.77 1013.75 1013.71 1013.70 1013.73 1013.82 1013.97 1014.17 1014.39 1014.60 1014.78 1014.92 1015.03 1015.10 1015.17 1015.25
1004.98 1005.44 1006.01 1006.63 1007.19 1007.62 1007.85 1007.85 1007.64 1007.26 1006.80 1006.35 1005.99 1005.78 1005.75 1005.91 1006.22 1006.65 1007.13 1007.63 1008.13 1008.60 1009.07 1009.53 1010.01 1010.52 1011.05 1011.58 1012.08 1012.53 1012.88 1013.14 1013.28 1013.33 1013.32 1013.29 1013.27 1013.28 1013.35 1013.47 1013.63 1013.82 1013.99 1014.14 1014.26 1014.33 1014.38 1014.43 1014.49
1004.51 1004.85 1005.36 1005.96 1006.57 1007.11 1007.51 1007.73 1007.76 1007.63 1007.38 1007.10 1006.84 1006.66 1006.60 1006.66 1006.84 1007.11 1007.43 1007.78 1008.13 1008.50 1008.88 1009.28 1009.72 1010.20 1010.71 1011.23 1011.72 1012.17 1012.52 1012.78 1012.93 1012.99 1012.98 1012.94 1012.90 1012.89 1012.92 1013.01 1013.13 1013.26 1013.40 1013.51 1013.58 1013.63 1013.66 1013.68 1013.72
1004.19 1004.42 1004.85 1005.42 1006.07 1006.72 1007.29 1007.74 1008.03 1008.16 1008.16 1008.07 1007.94 1007.83 1007.76 1007.75 1007.81 1007.92 1008.09 1008.28 1008.51 1008.76 1009.05 1009.39 1009.78 1010.22 1010.70 1011.19 1011.66 1012.07 1012.41 1012.65 1012.79 1012.83 1012.80 1012.74 1012.68 1012.63 1012.63 1012.66 1012.72 1012.81 1012.89 1012.95 1012.99 1013.00 1012.99 1012.99 1013.01
Thickness
5813 5816 5817 5811 5803 5792 5776 5779 5785 5784 5782 5786 5788 5786 5778 5773 5768 5758 5777 5786 5786 5787 5785 5781 5779 5779 5779 5779 5780 5780 5780 5779 5779 5779 5779 5779 5779 5778 5778 5777 5777 5776 5775 5774 5773 5772 5771 5770 5769
5823 5820 5815 5811 5800 5779 5772 5783 5781 5783 5786 5789 5788 5786 5780 5773 5778 5777 5781 5784 5787 5788 5787 5782 5777 5777 5777 5777 5777 5777 5777 5777 5777 5776 5776 5776 5776 5776 5776 5775 5774 5774 5773 5773 5772 5771 5770 5769 5768
5825 5822 5815 5811 5796 5782 5775 5786 5784 5788 5792 5790 5784 5784 5778 5772 5778 5779 5784 5786 5789 5787 5785 5779 5777 5776 5776 5775 5775 5775 5774 5774 5775 5775 5774 5773 5773 5773 5773 5772 5772 5772 5772 5772 5771 5770 5769 5767 5766
5826 5822 5820 5808 5790 5791 5791 5792 5792 5789 5790 5791 5786 5778 5778 5781 5783 5784 5786 5788 5788 5787 5786 5780 5777 5775 5775 5774 5774 5774 5773 5773 5773 5773 5772 5772 5771 5771 5771 5771 5770 5770 5770 5771 5770 5768 5767 5766 5764
5831 5824 5812 5802 5793 5796 5801 5800 5798 5790 5785 5787 5786 5775 5771 5781 5787 5787 5786 5788 5788 5787 5787 5782 5776 5775 5774 5773 5773 5773 5772 5772 5772 5772 5771 5770 5770 5770 5769 5769 5769 5769 5769 5770 5769 5766 5765 5764 5763
5829 5826 5807 5794 5793 5798 5802 5804 5800 5791 5787 5788 5786 5777 5771 5782 5784 5785 5787 5787 5788 5787 5786 5781 5775 5774 5774 5773 5772 5772 5772 5772 5771 5770 5770 5770 5769 5768 5768 5768 5767 5767 5767 5767 5766 5764 5763 5762 5761
5826 5821 5807 5803 5797 5796 5801 5808 5801 5794 5788 5789 5792 5778 5774 5780 5784 5787 5787 5786 5786 5786 5785 5783 5781 5776 5774 5773 5772 5771 5771 5770 5770 5769 5769 5768 5768 5767 5767 5767 5766 5766 5766 5765 5764 5763 5761 5760 5760
5837 5827 5814 5809 5802 5797 5807 5808 5805 5800 5792 5798 5797 5782 5775 5781 5787 5788 5786 5785 5784 5784 5784 5783 5782 5780 5779 5776 5772 5771 5771 5770 5769 5769 5768 5768 5768 5767 5766 5766 5765 5765 5764 5764 5763 5762 5760 5759 5758
5841 5825 5813 5811 5806 5804 5810 5805 5804 5809 5800 5797 5798 5794 5790 5789 5789 5786 5783 5782 5780 5780 5782 5782 5782 5780 5779 5778 5775 5773 5771 5770 5770 5769 5768 5769 5771 5770 5768 5767 5765 5764 5763 5762 5761 5761 5760 5759 5758
5838 5822 5817 5824 5824 5816 5812 5807 5804 5801 5793 5790 5790 5791 5792 5790 5787 5784 5781 5779 5778 5778 5780 5780 5781 5780 5780 5778 5776 5776 5775 5773 5772 5771 5771 5770 5770 5770 5769 5765 5764 5763 5762 5761 5760 5760 5759 5760 5761
5837 5825 5828 5830 5832 5826 5815 5811 5813 5802 5791 5792 5789 5788 5789 5788 5787 5785 5784 5783 5781 5781 5780 5780 5780 5779 5779 5778 5777 5776 5775 5773 5773 5771 5770 5770 5771 5771 5770 5768 5766 5764 5763 5763 5761 5761 5762 5762 5761
5835 5833 5834 5832 5833 5826 5819 5815 5811 5806 5802 5806 5802 5797 5791 5788 5787 5786 5784 5784 5783 5781 5780 5781 5780 5778 5777 5777 5777 5776 5776 5774 5773 5771 5771 5772 5771 5770 5770 5768 5768 5767 5765 5763 5763 5762 5761 5760 5759
5833 5832 5836 5837 5834 5830 5823 5816 5812 5808 5811 5810 5805 5798 5793 5791 5790 5789 5788 5785 5784 5782 5782 5781 5779 5777 5775 5774 5775 5776 5774 5775 5773 5771 5770 5770 5771 5770 5769 5767 5766 5767 5765 5764 5762 5761 5760 5759 5758
5837 5836 5835 5836 5833 5829 5820 5816 5813 5807 5813 5807 5802 5798 5796 5793 5792 5789 5787 5785 5784 5783 5782 5782 5780 5778 5776 5775 5774 5774 5775 5773 5774 5772 5771 5770 5770 5769 5768 5767 5766 5765 5764 5764 5762 5761 5760 5759 5758
5842 5831 5829 5832 5832 5829 5825 5809 5811 5814 5813 5805 5801 5799 5797 5796 5795 5790 5789 5787 5786 5784 5783 5782 5781 5780 5777 5776 5776 5776 5776 5776 5774 5772 5770 5769 5769 5767 5767 5767 5766 5765 5764 5762 5761 5761 5760 5759 5758
5837 5829 5819 5826 5831 5830 5821 5804 5815 5819 5813 5805 5803 5800 5797 5796 5798 5796 5794 5791 5790 5787 5784 5782 5784 5781 5778 5777 5776 5777 5777 5776 5774 5772 5770 5768 5768 5767 5767 5768 5767 5765 5764 5763 5761 5761 5760 5759 5757
5828 5821 5820 5822 5832 5830 5823 5812 5819 5823 5816 5808 5806 5803 5800 5797 5798 5799 5798 5795 5792 5789 5786 5783 5783 5781 5780 5778 5777 5776 5775 5774 5774 5773 5771 5769 5768 5768 5768 5768 5766 5765 5764 5763 5763 5761 5760 5757 5756
5819 5823 5821 5821 5830 5829 5822 5821 5823 5824 5820 5813 5810 5807 5803 5801 5800 5802 5801 5799 5795 5791 5788 5785 5783 5781 5780 5779 5777 5776 5774 5774 5774 5773 5770 5769 5769 5768 5768 5767 5765 5766 5765 5762 5761 5758 5757 5756 5756
5831 5826 5822 5827 5836 5828 5823 5823 5825 5825 5821 5816 5813 5810 5807 5806 5808 5806 5803 5801 5797 5793 5789 5786 5783 5782 5780 5778 5776 5774 5772 5774 5774 5773 5770 5769 5768 5767 5766 5767 5764 5764 5763 5760 5760 5758 5756 5756 5755
5828 5822 5823 5828 5834 5828 5825 5825 5832 5828 5824 5823 5819 5815 5813 5810 5808 5805 5804 5802 5799 5794 5791 5788 5784 5783 5781 5780 5777 5775 5774 5774 5774 5773 5770 5769 5768 5767 5767 5764 5764 5763 5760 5758 5757 5755 5755 5756 5755
5824 5823 5824 5823 5827 5830 5824 5820 5826 5830 5830 5828 5826 5824 5821 5816 5812 5808 5805 5804 5801 5796 5793 5791 5787 5785 5783 5781 5780 5778 5775 5774 5773 5771 5770 5769 5768 5767 5765 5764 5763 5761 5761 5758 5756 5755 5752 5752 5752
5819 5834 5831 5825 5818 5821 5820 5810 5824 5829 5826 5826 5826 5826 5825 5822 5819 5814 5809 5806 5803 5800 5798 5793 5790 5786 5784 5782 5781 5777 5773 5771 5771 5771 5770 5769 5767 5766 5764 5763 5761 5760 5760 5757 5756 5755 5753 5750 5749
5829 5837 5831 5826 5820 5818 5821 5813 5825 5831 5823 5827 5830 5831 5831 5828 5824 5819 5815 5811 5808 5805 5802 5797 5792 5788 5785 5783 5781 5777 5776 5775 5775 5773 5769 5768 5767 5766 5764 5762 5760 5759 5758 5756 5754 5753 5752 5752 5750
5832 5827 5823 5824 5822 5802 5816 5811 5816 5831 5830 5834 5836 5835 5834 5833 5828 5824 5821 5816 5811 5809 5805 5800 5794 5789 5787 5784 5782 5778 5775 5773 5772 5770 5769 5768 5768 5767 5764 5762 5760 5759 5757 5755 5753 5752 5751 5750 5748
5825 5811 5797 5794 5796 5803 5820 5812 5819 5838 5842 5842 5840 5838 5838 5836 5831 5825 5820 5816 5812 5809 5806 5802 5796 5790 5788 5785 5783 5780 5777 5774 5771 5770 5769 5768 5768 5766 5763 5763 5759 5758 5756 5754 5753 5751 5750 5748 5746
5819 5819 5797 5786 5792 5809 5811 5810 5828 5843 5845 5846 5845 5844 5840 5837 5834 5828 5824 5820 5815 5812 5808 5803 5797 5792 5790 5786 5783 5781 5778 5777 5776 5772 5771 5769 5768 5766 5764 5760 5758 5756 5755 5754 5751 5751 5748 5746 5744
5814 5816 5830 5815 5808 5802 5812 5818 5830 5840 5839 5839 5840 5839 5836 5835 5834 5830 5826 5822 5818 5813 5809 5805 5799 5794 5791 5788 5785 5781 5778 5777 5775 5773 5771 5770 5766 5765 5762 5759 5757 5755 5753 5752 5750 5748 5745 5744 5743
5825 5824 5815 5806 5787 5785 5801 5807 5816 5823 5829 5833 5834 5833 5834 5834 5832 5830 5827 5824 5820 5816 5811 5807 5801 5795 5792 5789 5786 5783 5779 5776 5774 5772 5769 5767 5765 5762 5760 5757 5755 5753 5751 5749 5747 5747 5744 5741 5740
5806 5808 5809 5808 5807 5791 5788 5807 5836 5830 5832 5832 5833 5833 5833 5832 5831 5828 5826 5824 5820 5816 5811 5805 5800 5795 5791 5788 5784 5781 5778 5776 5773 5770 5767 5765 5763 5760 5757 5754 5752 5751 5748 5747 5745 5744 5741 5738 5736
5815 5812 5807 5793 5790 5798 5799 5808 5836 5836 5836 5835 5833 5831 5831 5830 5830 5828 5825 5821 5817 5813 5809 5804 5799 5794 5790 5787 5782 5779 5777 5774 5771 5768 5766 5763 5760 5758 5755 5752 5749 5748 5746 5744 5741 5739 5738 5735 5732